| Date | Time | Temp. (oF) | Dew Point (oF) | Rel. Hum. (%) | Press. (in.) | Wind Dir. | Wind Speed (mph) | Hourly Rainfall (in.) |
|
|---|---|---|---|---|---|---|---|---|---|
| 1 | 03/01 | 00:00 | 41 | 41 | 100 | 29.67 | SSE | 1 | 0.00 |
| 2 | 02/29 | 23:00 | 42 | 41 | 100 | 29.72 | ESE | 4 | 0.00 |
| 3 | 02/29 | 22:00 | 42 | 41 | 100 | 29.75 | NE | 2 | 0.00 |
| 4 | 02/29 | 21:00 | 42 | 41 | 100 | 29.75 | E | 4 | 0.05 |
| 5 | 02/29 | 20:00 | 41 | 41 | 100 | 29.79 | SE | 5 | 0.14 |
| 6 | 02/29 | 19:00 | 42 | 41 | 100 | 29.89 | WSW | 3 | 0.07 |
| 7 | 02/29 | 18:00 | 42 | 41 | 100 | 29.83 | NE | 4 | 0.00 |
| 8 | 02/29 | 17:00 | 42 | 41 | 100 | 29.84 | ENE | 3 | 0.00 |
| 9 | 02/29 | 16:00 | 41 | 41 | 100 | 29.88 | ENE | 3 | 0.00 |
| 10 | 02/29 | 15:00 | 40 | 40 | 100 | 29.91 | ENE | 4 | 0.08 |
| 11 | 02/29 | 14:00 | 41 | 41 | 100 | 29.93 | ENE | 5 | 0.01 |
| 12 | 02/29 | 13:00 | 40 | 40 | 100 | 29.96 | ESE | 3 | 0.17 |
| 13 | 02/29 | 12:00 | 40 | 40 | 100 | 30.04 | NE | 2 | 0.21 |
| 14 | 02/29 | 11:00 | 37 | 36 | 100 | 30.05 | SE | 4 | 0.30 |
| 15 | 02/29 | 10:00 | 36 | 36 | 100 | 30.12 | NNE | 2 | 0.10 |
| 16 | 02/29 | 09:00 | 36 | 36 | 100 | 30.15 | SE | 4 | 0.01 |
| 17 | 02/29 | 08:00 | 37 | 35 | 93 | 30.18 | SE | 4 | 0.00 |
| 18 | 02/29 | 07:00 | 35 | 33 | 94 | 30.19 | SE | 3 | 0.00 |
| 19 | 02/29 | 06:00 | 34 | 29 | 85 | 30.21 | ESE | 2 | 0.00 |
| 20 | 02/29 | 05:00 | 34 | 28 | 79 | 30.24 | ENE | 2 | 0.00 |
| 21 | 02/29 | 04:00 | 35 | 27 | 74 | 30.26 | SSE | 1 | 0.00 |
| 22 | 02/29 | 03:00 | 33 | 28 | 82 | 30.27 | S | 2 | 0.00 |
| 23 | 02/29 | 02:00 | 36 | 28 | 74 | 30.31 | ESE | 2 | 0.00 |
| 24 | 02/29 | 01:00 | 36 | 29 | 77 | 30.33 | ENE | 2 | 0.00 |